Tracking 19832 objects as of 24-Aug-2019
HD Live streaming from Space Station
objects crossing your sky now

IRIDIUM 160

Track IRIDIUM 160 now!
10-day predictions
IRIDIUM 160 is classified as:


NORAD ID: 43569
Int'l Code: 2018-061A
Perigee: 783.2 km
Apogee: 786.4 km
Inclination: 86.4 °
Period: 100.4 minutes
Semi major axis: 7155 km
RCS: Unknown
Launch date: July 25, 2018
Source: United States (US)
Launch site: AIR FORCE WESTERN TEST RANGE (AFWTR)
aabbcc
Your satellite tracking list
Your tracking list is empty




NASA's NSSDC Master Catalog

Two Line Element Set (TLE):
1 43569U 18061A   19235.92891637  .00000068  00000-0  17358-4 0  9990
2 43569  86.3993  16.9988 0002193  85.0668 275.0778 14.34216824 56581
Source of the keplerian elements: AFSPC